SCP
0 0 0 0 0 0 0 0 0 0 0 0 0 -0 0 0 -0 0 0 0 0 0 0 0 0 0 0 0 0 0 0 0 0 -0 0 0 -0 0 0 0 0 0 0 0
0 0 0 0 0 0 0 0 0 0 0 0 0 0 0 0 0 0 0 0 0 0 0 0 0 0 0 0 0 0 0 0 0 0 -0 0 0 -0 -0 0 0 0 0 0
0 0 0 0 0 0 0 0 0 0 0 0 0 0 0 0 0 0 0 0 0 0 0 0 0 0 0 0 0 -0 -0 0 -0 -0 -0 -0 -0 -0 -0 -0 0 0 0 0
0 0 0 0 0 0 0 0 0 0 0 0 0 0 0 0 0 0 0 0 0 0 0 0 0 0 0 0 0 0 0 0 0 -0 -0 -0 -0 0 -0 -0 -0 0 0 0
0 0 0 0 0 0 0 0 0 0 0 0 0 0 0 0 0 0 0 0 0 0 0 0 0 0 0 0 0 0 0 0 0 0 -0 -0 -0 -0 -0 -0 -0 -0 0 0
0 0 0 0 0 0 0 0 0 0 0 0 0 0 0 0 0 0 0 0 0 0 0 0 0 0 0 0 0 0 0 0 0 0 0 0 0 -0 0 -0 -0 -0 0 0
0 0 0 0 0 0 0 0 0 0 0 0 0 0 0 0 0 0 0 0 0 0 0 0 0 0 0 0 0 0 0 0 0 0 0 0 0 0 0 0 0 0 -0 0
0 0 0 0 0 0 0 0 0 0 0 0 0 0 0 0 0 0 0 0 0 0 0 0 0 0 0 0 0 0 0 0 0 0 0 0 0 0 0 0 0 0 0 0
0 0 0 0 0 0 0 0 0 0 0 0 0 0 0 0 0 0 0 0 0 0 0 0 0 0 0 0 0 0 0 0 0 0 0 0 0 0 0 0 0 0 0 0
0 0 0 0 0 0 0 0 0 0 0 0 0 0 0 0 0 0 0 0 0 0 0 0 0 0 0 0 0 0 0 0 0 0 0 0 0 0 0 0 0 0 0 0
0 0 0 0 0 0 0 0 0 0 0 0 0 0 0 0 0 0 0 0 0 0 0 0 0 0 0 0 0 0 0 0 0 0 0 0 0 0 0 0 0 0 0 0
0 0 0 0 0 0 0 0 0 0 0 0 0 0 0 0 0 0 0 0 0 0 0 0 0 0 0 0 0 0 0 0 0 0 0 0 0 0 0 0 0 0 0 0
0 0 0 0 0 0 0 0 0 0 0 0 0 0 0 0 0 0 0 0 0 0 0 0 0 0 0 0 0 0 0 -0 -0 0 0 0 0 0 0 0 0 0 0 0
0 0 0 0 0 0 0 0 0 0 0 0 0 0 0 0 0 0 0 0 0 0 0 0 0 0 0 0 0 0 -0 -0 -0 0 0 0 0 0 0 0 0 0 0 0
0 0 0 0 0 0 0 0 0 0 0 0 0 0 0 0 0 0 0 0 0 0 0 0 0 0 0 0 0 0 -0 -0 -0 0 0 0 0 0 0 0 0 0 0 0
0 0 0 0 0 0 0 0 0 0 0 0 0 0 0 0 0 0 0 0 0 0 0 0 0 0 0 0 0 0 0 0 0 -0 0 0 0 0 0 0 0 0 0 0
0 0 0 0 0 0 0 0 0 0 0 0 0 0 0 0 0 0 0 0 0 0 0 0 0 0 0 0 0 0 0 0 0 0 0 0 0 0 0 0 0 0 0 0
0 0 0 0 0 0 0 0 0 0 0 0 0 0 0 0 0 0 0 0 0 0 0 0 0 0 0 0 0 0 0 0 0 0 0 0 0 0 0 0 0 0 0 0
0 0 0 0 0 0 0 0 0 0 0 0 0 0 0 0 0 0 0 0 0 0 0 0 0 0 0 0 0 0 0 0 0 0 0 0 0 0 0 0 0 0 0 0
0 0 0 0 0 0 0 0 0 0 0 0 0 0 0 0 0 0 0 0 0 0 0 0 0 0 0 0 0 0 0 0 0 0 0 0 0 0 -0 0 0 0 0 0
0 0 0 0 0 0 0 0 0 0 0 0 0 0 0 0 0 0 0 0 0 0 0 0 0 0 0 0 0 0 0 0 0 0 0 -0 -0 -0 -0 -0 0 0 0 0
0 0 0 0 0 0 0 0 0 0 0 0 0 0 0 0 0 0 0 0 0 0 0 0 0 0 0 0 0 0 0 0 -0 -0 -0 -0 -0 -0 -0 -0 0 0 0 0
0 0 0 0 0 0 0 0 0 0 0 0 0 0 0 0 0 0 0 0 0 0 0 0 0 0 0 0 0 0 0 0 -0 0 0 0 0 -0 -0 -0 -0 -0 -0 -0
0 0 0 0 0 0 0 0 0 0 0 0 0 0 0 0 0 0 0 0 0 0 0 0 0 0 0 0 -0 -0 -0 -0 -0 -0 -0 -0 0 0 0 0 0 0 -0 -0
0 0 0 0 0 0 0 0 0 0 0 0 0 0 0 0 0 0 0 0 0 0 0 0 0 0 0 0 0 0 0 0 0 -0 -0 -0 -0 -0 0 -0 -0 -0 -0 -0
0 0 0 0 0 0 0 0 0 0 0 0 0 0 0 0 0 0 0 0 0 0 0 0 0 0 0 0 0 0 0 0 0 0 0 0 0 0 0 0 0 -0 -0 -0
Wind_Speed_500mb
6 10 9 11 11 5 9 15 20 28 20 24 20 38 47 44 43 18 15 15 22 21 20 23 27 32 37 42 50 58 63 63 60 60 61 69 84 87 73 91 107 105 109 109
1 8 5 4 5 9 14 19 18 17 27 33 22 42 46 30 17 5 12 22 27 23 26 32 35 38 45 50 60 64 71 78 79 77 78 72 79 91 97 78 93 116 118 105
8 8 3 3 7 11 12 13 15 19 34 23 17 16 16 11 15 8 22 16 22 30 39 36 46 53 65 75 75 84 72 74 77 82 74 79 78 87 94 113 57 116 125 123
8 7 3 6 2 8 7 12 17 25 17 7 16 10 12 6 11 6 25 33 31 39 47 62 72 74 76 76 72 72 76 62 63 64 71 72 78 87 88 92 118 58 136 137
4 1 4 5 6 5 14 21 25 28 12 12 4 1 13 20 13 15 17 32 43 51 69 80 85 79 74 85 88 85 81 83 82 75 74 74 75 82 84 88 91 110 93 128
9 3 4 9 12 7 19 18 19 2 3 2 3 4 13 8 11 13 19 36 52 65 77 76 67 75 87 87 81 77 74 78 79 70 72 74 81 80 79 82 82 91 86 93
7 7 6 4 8 6 14 12 8 10 4 9 12 10 17 21 9 8 15 39 56 73 74 71 81 89 87 82 79 74 75 75 73 75 65 68 70 67 70 77 76 75 72 78
4 8 5 1 6 4 10 5 7 7 7 11 17 12 10 8 7 17 43 54 65 73 71 76 81 78 79 79 78 80 77 77 74 73 73 64 63 65 70 74 69 61 58 67
7 4 7 4 3 2 2 3 2 1 7 3 9 13 17 11 8 23 40 52 68 71 73 81 74 77 77 80 82 74 74 74 71 69 64 69 56 57 62 65 61 50 56 81
3 8 4 6 4 3 5 3 2 1 8 12 13 12 11 16 17 19 34 51 68 75 80 74 75 76 80 79 79 72 66 68 65 58 56 57 62 47 52 53 54 43 57 65
7 1 2 4 12 9 3 2 4 4 3 7 9 12 5 12 15 29 36 61 70 77 76 77 77 81 81 82 76 69 63 56 54 50 45 47 44 43 46 48 43 43 53 54
5 2 9 5 10 9 8 7 10 8 8 7 4 16 16 12 31 45 51 60 70 69 74 75 76 78 83 85 77 68 59 52 40 32 32 31 31 35 41 39 37 47 49 56
10 4 8 5 6 3 8 11 9 9 5 12 6 14 2 32 29 53 50 59 66 73 76 76 79 81 88 85 76 67 57 44 14 14 21 28 29 26 31 36 43 47 39 40
4 1 12 11 5 6 11 12 19 14 7 7 22 25 49 37 33 40 49 54 67 67 71 71 76 81 84 80 72 63 49 34 14 3 11 16 20 23 29 39 44 39 32 36
5 8 9 13 31 18 28 30 24 21 24 14 26 15 50 43 34 25 45 63 69 68 74 75 77 79 80 76 68 58 45 29 17 8 10 14 21 28 35 37 39 44 39 36
8 6 6 12 14 16 27 26 30 34 32 30 43 54 50 46 27 38 46 56 61 65 72 73 72 72 74 69 62 54 44 33 23 28 32 33 36 42 43 45 48 50 47 42
11 4 4 12 9 16 14 14 26 10 11 14 14 25 8 18 17 24 39 45 53 62 71 70 67 66 64 59 54 50 42 31 28 37 41 43 46 49 50 52 52 56 55 51
9 6 4 8 11 6 10 7 10 20 11 29 20 20 18 25 32 7 35 41 51 60 64 63 58 57 55 50 49 45 41 41 41 42 47 54 56 61 60 60 60 59 62 63
6 5 2 1 5 17 9 9 10 12 15 27 34 27 27 21 31 5 30 35 43 48 52 53 49 48 49 46 44 46 50 49 49 51 50 51 57 65 64 70 72 72 77 79
8 5 5 4 4 11 6 9 5 7 10 13 18 13 4 11 5 6 24 29 37 42 46 51 54 48 50 47 44 46 53 54 55 53 54 57 60 68 74 74 77 78 74 77
7 5 9 8 8 19 14 15 10 10 12 23 21 16 13 7 12 13 13 17 27 33 40 42 46 52 50 46 47 51 48 52 46 48 54 60 65 65 67 68 67 69 73 75
18 18 9 6 6 18 28 12 15 9 14 29 23 22 18 13 14 10 6 9 17 23 28 34 40 45 47 48 47 49 51 42 42 46 50 54 57 60 62 65 67 66 66 67
7 15 13 23 16 4 58 12 37 8 12 25 25 21 15 12 13 12 7 2 6 14 20 26 33 34 39 42 44 48 46 40 41 43 46 47 47 49 52 54 55 53 51 51
9 21 5 3 14 35 52 54 53 41 39 31 29 28 21 14 16 17 13 9 4 4 10 17 22 28 34 38 41 45 41 39 38 41 42 40 40 41 43 44 43 42 39 37
10 22 11 13 28 43 58 52 59 57 54 56 47 41 37 25 26 23 20 16 12 8 5 6 9 15 21 25 27 29 29 26 28 32 34 34 34 34 34 34 32 27 27 22
21 16 13 16 29 13 12 13 19 29 38 42 44 49 50 41 35 27 24 20 17 15 13 9 7 7 9 13 15 18 20 19 18 18 20 21 21 21 21 19 21 21 20 17
Wind_Direction_500mb
17 70 52 21 30 1 274 277 282 292 329 348 286 290 286 287 287 278 257 228 242 262 265 278 280 291 294 307 309 308 304 300 298 297 295 284 267 264 269 258 207 217 215 210
11 90 61 300 217 285 314 309 299 309 352 313 296 293 291 277 252 56 349 318 320 311 296 286 288 293 295 301 310 304 301 297 293 289 293 285 280 266 254 246 225 213 213 206
63 103 221 257 302 0 309 296 344 309 327 286 324 288 351 6 97 213 255 258 275 283 290 306 315 309 306 305 302 302 299 286 282 286 282 280 276 278 266 254 263 222 218 216
62 135 301 280 353 46 299 40 332 308 332 304 9 290 299 34 223 170 21 2 359 346 332 320 314 309 304 304 303 297 287 289 279 275 277 275 274 274 272 263 249 261 213 212
124 73 343 284 55 14 250 315 292 272 267 305 328 59 264 301 12 356 10 354 347 337 318 312 307 305 302 303 300 297 292 283 281 281 281 275 272 271 271 269 261 251 227 216
86 65 301 341 301 239 280 296 299 71 227 352 200 86 279 287 346 345 352 340 339 328 319 313 308 307 309 305 301 297 292 290 284 278 274 270 266 267 269 269 267 255 252 206
170 152 108 314 305 162 16 360 343 354 330 232 157 288 247 290 34 351 307 347 339 329 321 320 316 314 311 307 305 299 296 290 285 275 274 269 263 265 263 262 265 259 265 257
33 318 174 147 43 345 53 70 126 257 298 287 285 231 255 338 97 337 2 338 335 328 322 319 315 314 312 309 306 303 298 292 287 281 272 268 265 263 260 259 260 256 256 238
347 229 115 16 26 318 129 111 49 240 236 313 243 278 289 126 343 18 345 337 335 329 325 322 323 319 318 315 315 310 303 294 286 280 270 259 256 261 257 255 253 248 242 240
13 305 97 134 211 95 48 348 122 50 330 300 283 291 250 340 321 353 341 337 337 332 331 329 327 325 328 326 322 314 302 291 283 273 268 263 245 250 257 253 252 239 238 225
104 225 193 121 201 157 134 180 279 115 194 224 305 267 308 299 353 352 342 343 338 332 331 333 331 334 333 333 334 329 319 303 283 267 261 256 250 250 251 247 239 242 224 216
56 187 265 214 106 69 312 220 172 135 261 243 214 266 270 279 356 353 340 338 335 333 334 336 337 338 340 344 344 340 338 322 289 260 246 242 238 246 247 226 228 227 222 224
180 224 319 328 24 112 231 196 214 99 90 221 158 261 216 336 340 337 339 337 333 340 340 340 344 346 348 350 351 350 357 356 341 237 226 233 234 237 229 214 210 206 209 197
133 242 204 205 191 93 230 201 196 144 163 236 230 276 293 308 321 326 335 335 342 341 342 343 347 349 353 356 358 359 5 9 5 293 226 223 232 217 193 189 185 182 183 181
229 224 214 237 265 266 261 251 238 212 205 193 270 292 290 298 310 315 333 345 344 343 347 348 350 354 357 359 3 7 13 29 48 108 145 155 160 160 157 156 150 149 147 147
194 262 10 294 242 237 259 248 233 235 240 252 262 278 280 287 316 340 346 346 343 344 348 349 355 360 1 3 6 11 21 34 68 102 116 126 131 137 133 134 131 133 132 130
157 218 67 269 341 311 302 231 199 200 187 177 202 235 296 322 324 348 350 346 345 348 353 353 359 5 5 9 14 23 35 48 72 94 107 116 123 120 121 120 123 123 123 124
139 148 111 274 340 356 237 192 184 197 204 210 262 269 278 280 313 303 357 355 355 359 3 3 7 11 11 19 29 36 47 63 75 86 99 110 116 115 119 120 118 120 120 120
129 171 174 164 265 289 288 156 174 165 273 217 225 253 270 315 318 223 0 3 6 8 14 14 17 23 23 30 42 52 60 68 77 85 94 103 111 114 115 112 114 116 118 118
184 74 126 102 192 249 249 154 115 143 297 179 181 215 257 332 360 257 351 5 14 19 23 26 30 34 42 40 45 61 67 72 76 86 95 104 109 111 112 115 118 121 121 121
164 180 200 205 251 282 244 156 164 84 244 176 195 198 199 200 222 302 336 17 21 22 27 35 38 40 44 53 55 55 63 71 83 95 102 106 108 110 114 117 120 122 122 124
169 161 191 175 200 281 147 118 178 211 158 180 196 200 209 241 265 283 304 21 29 31 38 42 48 51 51 54 58 67 68 71 81 92 98 103 108 113 118 121 123 124 128 129
224 196 179 192 213 224 185 224 216 200 203 207 213 215 222 244 255 262 256 307 43 39 42 49 54 58 63 62 63 68 71 76 83 90 95 100 107 112 116 117 117 117 117 117
230 211 235 82 246 237 240 245 247 248 254 245 233 231 234 263 251 242 235 229 224 95 70 65 67 68 72 72 72 73 76 79 84 87 91 96 101 105 108 109 109 113 118 121
196 140 186 262 279 278 264 255 264 263 259 254 245 243 247 259 249 238 230 221 220 209 181 114 85 77 79 82 81 81 80 77 82 92 99 105 108 110 112 114 113 112 114 114
192 179 180 233 223 223 254 263 263 248 247 250 248 244 248 252 235 230 225 223 220 213 208 194 171 138 115 104 100 98 93 84 73 78 90 96 100 103 107 113 122 129 134 140
Wind_Speed_850mb
6 10 9 11 11 5 9 15 20 28 20 24 20 38 47 44 43 18 15 15 22 21 20 23 27 32 37 42 50 58 63 63 60 60 61 69 84 87 73 91 107 105 109 109
1 8 5 4 5 9 14 19 18 17 27 33 22 42 46 30 17 5 12 22 27 23 26 32 35 38 45 50 60 64 71 78 79 77 78 72 79 91 97 78 93 116 118 105
8 8 3 3 7 11 12 13 15 19 34 23 17 16 16 11 15 8 22 16 22 30 39 36 46 53 65 75 75 84 72 74 77 82 74 79 78 87 94 113 57 116 125 123
8 7 3 6 2 8 7 12 17 25 17 7 16 10 12 6 11 6 25 33 31 39 47 62 72 74 76 76 72 72 76 62 63 64 71 72 78 87 88 92 118 58 136 137
4 1 4 5 6 5 14 21 25 28 12 12 4 1 13 20 13 15 17 32 43 51 69 80 85 79 74 85 88 85 81 83 82 75 74 74 75 82 84 88 91 110 93 128
9 3 4 9 12 7 19 18 19 2 3 2 3 4 13 8 11 13 19 36 52 65 77 76 67 75 87 87 81 77 74 78 79 70 72 74 81 80 79 82 82 91 86 93
7 7 6 4 8 6 14 12 8 10 4 9 12 10 17 21 9 8 15 39 56 73 74 71 81 89 87 82 79 74 75 75 73 75 65 68 70 67 70 77 76 75 72 78
4 8 5 1 6 4 10 5 7 7 7 11 17 12 10 8 7 17 43 54 65 73 71 76 81 78 79 79 78 80 77 77 74 73 73 64 63 65 70 74 69 61 58 67
7 4 7 4 3 2 2 3 2 1 7 3 9 13 17 11 8 23 40 52 68 71 73 81 74 77 77 80 82 74 74 74 71 69 64 69 56 57 62 65 61 50 56 81
3 8 4 6 4 3 5 3 2 1 8 12 13 12 11 16 17 19 34 51 68 75 80 74 75 76 80 79 79 72 66 68 65 58 56 57 62 47 52 53 54 43 57 65
7 1 2 4 12 9 3 2 4 4 3 7 9 12 5 12 15 29 36 61 70 77 76 77 77 81 81 82 76 69 63 56 54 50 45 47 44 43 46 48 43 43 53 54
5 2 9 5 10 9 8 7 10 8 8 7 4 16 16 12 31 45 51 60 70 69 74 75 76 78 83 85 77 68 59 52 40 32 32 31 31 35 41 39 37 47 49 56
10 4 8 5 6 3 8 11 9 9 5 12 6 14 2 32 29 53 50 59 66 73 76 76 79 81 88 85 76 67 57 44 14 14 21 28 29 26 31 36 43 47 39 40
4 1 12 11 5 6 11 12 19 14 7 7 22 25 49 37 33 40 49 54 67 67 71 71 76 81 84 80 72 63 49 34 14 3 11 16 20 23 29 39 44 39 32 36
5 8 9 13 31 18 28 30 24 21 24 14 26 15 50 43 34 25 45 63 69 68 74 75 77 79 80 76 68 58 45 29 17 8 10 14 21 28 35 37 39 44 39 36
8 6 6 12 14 16 27 26 30 34 32 30 43 54 50 46 27 38 46 56 61 65 72 73 72 72 74 69 62 54 44 33 23 28 32 33 36 42 43 45 48 50 47 42
11 4 4 12 9 16 14 14 26 10 11 14 14 25 8 18 17 24 39 45 53 62 71 70 67 66 64 59 54 50 42 31 28 37 41 43 46 49 50 52 52 56 55 51
9 6 4 8 11 6 10 7 10 20 11 29 20 20 18 25 32 7 35 41 51 60 64 63 58 57 55 50 49 45 41 41 41 42 47 54 56 61 60 60 60 59 62 63
6 5 2 1 5 17 9 9 10 12 15 27 34 27 27 21 31 5 30 35 43 48 52 53 49 48 49 46 44 46 50 49 49 51 50 51 57 65 64 70 72 72 77 79
8 5 5 4 4 11 6 9 5 7 10 13 18 13 4 11 5 6 24 29 37 42 46 51 54 48 50 47 44 46 53 54 55 53 54 57 60 68 74 74 77 78 74 77
7 5 9 8 8 19 14 15 10 10 12 23 21 16 13 7 12 13 13 17 27 33 40 42 46 52 50 46 47 51 48 52 46 48 54 60 65 65 67 68 67 69 73 75
18 18 9 6 6 18 28 12 15 9 14 29 23 22 18 13 14 10 6 9 17 23 28 34 40 45 47 48 47 49 51 42 42 46 50 54 57 60 62 65 67 66 66 67
7 15 13 23 16 4 58 12 37 8 12 25 25 21 15 12 13 12 7 2 6 14 20 26 33 34 39 42 44 48 46 40 41 43 46 47 47 49 52 54 55 53 51 51
9 21 5 3 14 35 52 54 53 41 39 31 29 28 21 14 16 17 13 9 4 4 10 17 22 28 34 38 41 45 41 39 38 41 42 40 40 41 43 44 43 42 39 37
10 22 11 13 28 43 58 52 59 57 54 56 47 41 37 25 26 23 20 16 12 8 5 6 9 15 21 25 27 29 29 26 28 32 34 34 34 34 34 34 32 27 27 22
21 16 13 16 29 13 12 13 19 29 38 42 44 49 50 41 35 27 24 20 17 15 13 9 7 7 9 13 15 18 20 19 18 18 20 21 21 21 21 19 21 21 20 17
Wind_Direction_850mb
17 70 52 21 30 1 274 277 282 292 329 348 286 290 286 287 287 278 257 228 242 262 265 278 280 291 294 307 309 308 304 300 298 297 295 284 267 264 269 258 207 217 215 210
11 90 61 300 217 285 314 309 299 309 352 313 296 293 291 277 252 56 349 318 320 311 296 286 288 293 295 301 310 304 301 297 293 289 293 285 280 266 254 246 225 213 213 206
63 103 221 257 302 0 309 296 344 309 327 286 324 288 351 6 97 213 255 258 275 283 290 306 315 309 306 305 302 302 299 286 282 286 282 280 276 278 266 254 263 222 218 216
62 135 301 280 353 46 299 40 332 308 332 304 9 290 299 34 223 170 21 2 359 346 332 320 314 309 304 304 303 297 287 289 279 275 277 275 274 274 272 263 249 261 213 212
124 73 343 284 55 14 250 315 292 272 267 305 328 59 264 301 12 356 10 354 347 337 318 312 307 305 302 303 300 297 292 283 281 281 281 275 272 271 271 269 261 251 227 216
86 65 301 341 301 239 280 296 299 71 227 352 200 86 279 287 346 345 352 340 339 328 319 313 308 307 309 305 301 297 292 290 284 278 274 270 266 267 269 269 267 255 252 206
170 152 108 314 305 162 16 360 343 354 330 232 157 288 247 290 34 351 307 347 339 329 321 320 316 314 311 307 305 299 296 290 285 275 274 269 263 265 263 262 265 259 265 257
33 318 174 147 43 345 53 70 126 257 298 287 285 231 255 338 97 337 2 338 335 328 322 319 315 314 312 309 306 303 298 292 287 281 272 268 265 263 260 259 260 256 256 238
347 229 115 16 26 318 129 111 49 240 236 313 243 278 289 126 343 18 345 337 335 329 325 322 323 319 318 315 315 310 303 294 286 280 270 259 256 261 257 255 253 248 242 240
13 305 97 134 211 95 48 348 122 50 330 300 283 291 250 340 321 353 341 337 337 332 331 329 327 325 328 326 322 314 302 291 283 273 268 263 245 250 257 253 252 239 238 225
104 225 193 121 201 157 134 180 279 115 194 224 305 267 308 299 353 352 342 343 338 332 331 333 331 334 333 333 334 329 319 303 283 267 261 256 250 250 251 247 239 242 224 216
56 187 265 214 106 69 312 220 172 135 261 243 214 266 270 279 356 353 340 338 335 333 334 336 337 338 340 344 344 340 338 322 289 260 246 242 238 246 247 226 228 227 222 224
180 224 319 328 24 112 231 196 214 99 90 221 158 261 216 336 340 337 339 337 333 340 340 340 344 346 348 350 351 350 357 356 341 237 226 233 234 237 229 214 210 206 209 197
133 242 204 205 191 93 230 201 196 144 163 236 230 276 293 308 321 326 335 335 342 341 342 343 347 349 353 356 358 359 5 9 5 293 226 223 232 217 193 189 185 182 183 181
229 224 214 237 265 266 261 251 238 212 205 193 270 292 290 298 310 315 333 345 344 343 347 348 350 354 357 359 3 7 13 29 48 108 145 155 160 160 157 156 150 149 147 147
194 262 10 294 242 237 259 248 233 235 240 252 262 278 280 287 316 340 346 346 343 344 348 349 355 360 1 3 6 11 21 34 68 102 116 126 131 137 133 134 131 133 132 130
157 218 67 269 341 311 302 231 199 200 187 177 202 235 296 322 324 348 350 346 345 348 353 353 359 5 5 9 14 23 35 48 72 94 107 116 123 120 121 120 123 123 123 124
139 148 111 274 340 356 237 192 184 197 204 210 262 269 278 280 313 303 357 355 355 359 3 3 7 11 11 19 29 36 47 63 75 86 99 110 116 115 119 120 118 120 120 120
129 171 174 164 265 289 288 156 174 165 273 217 225 253 270 315 318 223 0 3 6 8 14 14 17 23 23 30 42 52 60 68 77 85 94 103 111 114 115 112 114 116 118 118
184 74 126 102 192 249 249 154 115 143 297 179 181 215 257 332 360 257 351 5 14 19 23 26 30 34 42 40 45 61 67 72 76 86 95 104 109 111 112 115 118 121 121 121
164 180 200 205 251 282 244 156 164 84 244 176 195 198 199 200 222 302 336 17 21 22 27 35 38 40 44 53 55 55 63 71 83 95 102 106 108 110 114 117 120 122 122 124
169 161 191 175 200 281 147 118 178 211 158 180 196 200 209 241 265 283 304 21 29 31 38 42 48 51 51 54 58 67 68 71 81 92 98 103 108 113 118 121 123 124 128 129
224 196 179 192 213 224 185 224 216 200 203 207 213 215 222 244 255 262 256 307 43 39 42 49 54 58 63 62 63 68 71 76 83 90 95 100 107 112 116 117 117 117 117 117
230 211 235 82 246 237 240 245 247 248 254 245 233 231 234 263 251 242 235 229 224 95 70 65 67 68 72 72 72 73 76 79 84 87 91 96 101 105 108 109 109 113 118 121
196 140 186 262 279 278 264 255 264 263 259 254 245 243 247 259 249 238 230 221 220 209 181 114 85 77 79 82 81 81 80 77 82 92 99 105 108 110 112 114 113 112 114 114
192 179 180 233 223 223 254 263 263 248 247 250 248 244 248 252 235 230 225 223 220 213 208 194 171 138 115 104 100 98 93 84 73 78 90 96 100 103 107 113 122 129 134 140